Wind_Speed
8 8 8 8 8 8 9 9 9 9 9 8 8 8 7 7 7 7 6 6 6 6 7 8 10 13 15 14 13 11 10 9 7 8 6 2 2 7 8 10 14 14 14 15 13 12 13 14 15 15 13 12 9 10 9 5 5 2 1 5 4 2 4 3 3 3 2 2 4 5 6 8 7 5 4 4 4 7 8 6 5 4 5 5 5 6 7 6
9 9 9 9 9 9 9 9 9 9 9 9 9 8 8 8 7 7 7 7 6 6 6 6 7 9 12 14 15 13 11 10 9 9 8 3 4 9 10 10 12 13 13 14 14 14 14 15 16 16 15 14 11 12 11 8 8 4 2 5 3 2 2 3 3 4 5 2 4 7 7 8 9 7 6 3 3 5 6 6 4 4 5 5 5 7 7 6
9 9 9 9 9 9 9 10 10 10 10 10 10 9 9 9 8 7 7 7 7 6 6 6 6 7 8 11 14 14 13 10 10 11 11 8 7 11 12 11 10 11 13 14 15 15 15 16 17 17 16 16 15 14 14 12 8 5 6 6 2 3 3 5 5 3 6 5 4 8 8 7 9 10 8 5 5 4 4 5 3 4 6 5 5 6 7 7
9 9 9 9 9 9 9 10 10 10 10 10 10 10 10 10 9 9 8 7 7 7 6 6 6 6 6 7 10 13 13 11 12 14 13 10 8 11 13 11 10 11 13 14 15 16 17 17 17 18 17 16 15 13 14 13 10 9 8 6 6 5 5 5 5 2 4 6 5 9 10 7 8 11 10 7 9 7 4 3 2 5 7 6 6 6 6 7
10 9 9 8 8 9 9 9 9 10 10 10 10 10 10 10 10 10 9 9 8 7 7 7 7 6 6 6 6 9 12 12 14 16 13 12 10 11 12 12 11 11 14 15 15 17 18 18 17 17 17 16 14 14 15 13 11 10 7 4 8 9 8 5 5 4 4 5 4 8 9 6 7 12 12 10 11 10 6 4 4 6 6 6 6 6 6 7
10 10 9 9 8 8 9 9 9 9 9 10 10 10 10 10 10 10 10 10 9 9 8 7 7 7 6 6 5 6 9 10 14 16 14 13 12 12 13 11 11 12 14 14 14 18 18 19 18 16 17 15 13 14 16 15 13 9 6 3 6 11 11 9 8 7 7 5 2 5 8 8 8 11 12 11 14 11 5 3 5 7 6 6 6 6 7 6
11 11 10 10 9 8 9 9 9 9 9 10 10 10 9 9 10 10 10 10 10 9 9 9 8 8 7 6 6 5 7 7 12 16 16 15 15 14 14 12 11 11 13 13 15 17 18 20 19 17 17 15 13 13 14 15 14 12 9 3 6 10 15 17 12 9 8 5 2 5 8 8 7 11 10 9 15 11 5 3 6 8 7 7 7 7 7 5
12 12 11 10 10 9 9 9 9 9 10 10 10 10 10 9 9 9 10 10 10 10 9 10 9 9 8 8 7 6 7 7 11 16 17 15 15 16 15 13 11 11 12 14 16 18 20 21 20 20 18 14 15 12 8 7 5 6 5 3 9 12 18 20 15 11 9 4 4 6 6 7 7 9 8 9 15 12 7 5 6 8 8 7 7 7 7 6
14 13 12 12 11 11 10 10 10 10 11 11 11 11 10 10 10 10 9 10 10 10 10 9 9 9 9 8 7 7 6 8 10 12 15 15 15 16 16 15 13 11 13 15 17 19 20 20 21 21 19 17 18 14 9 8 7 6 7 10 12 15 16 16 15 11 8 7 6 6 6 7 8 7 8 12 15 11 7 6 5 7 8 7 8 7 7 6
15 14 14 13 13 13 13 13 12 12 12 12 12 12 12 11 11 11 10 10 10 10 10 10 9 9 9 8 8 8 6 6 10 10 12 14 15 17 17 17 15 13 13 14 16 18 18 19 21 22 22 22 22 18 11 13 14 5 10 15 14 16 15 13 15 12 9 11 7 6 6 7 8 8 10 14 14 11 7 7 6 5 8 8 8 7 7 7
16 16 16 15 15 15 14 14 14 14 14 14 14 13 13 13 12 12 12 11 11 10 10 10 10 9 9 9 9 9 7 6 8 10 11 12 14 17 19 18 17 15 14 14 16 17 18 20 22 24 25 24 24 21 14 14 15 10 8 17 17 17 18 14 12 11 9 10 8 6 8 8 7 10 12 13 13 10 7 8 7 5 7 8 7 6 6 7
16 16 17 17 16 16 15 15 15 15 15 15 15 14 14 13 13 13 13 13 13 12 12 11 11 10 10 10 9 10 9 7 6 8 11 11 12 15 19 20 19 18 16 15 16 18 20 21 23 25 25 23 23 20 16 14 8 9 18 20 20 18 20 19 14 14 10 8 11 10 10 10 8 11 13 10 12 11 6 8 8 6 7 7 6 6 6 6
17 17 17 17 17 17 17 17 16 16 16 16 16 15 15 14 13 14 13 13 13 14 14 12 12 11 12 12 9 11 10 8 7 7 9 11 11 11 16 21 22 20 18 17 16 18 20 22 24 25 25 24 24 19 18 17 8 9 18 23 24 20 19 22 18 17 12 10 14 14 12 12 9 12 13 8 12 13 7 7 9 7 6 6 5 5 6 6
17 17 18 18 18 18 18 18 18 18 17 18 18 17 16 15 15 14 14 14 13 14 14 14 13 11 13 14 10 11 12 9 9 8 7 9 11 11 13 18 22 22 20 19 18 18 20 23 24 25 26 25 23 21 23 24 16 15 18 24 27 23 17 19 18 14 8 13 17 15 13 12 11 13 13 8 12 14 8 6 9 8 6 5 4 5 5 6
17 18 18 18 18 18 18 18 18 18 18 18 19 19 18 18 17 16 16 16 14 15 15 14 14 12 13 15 12 11 12 11 10 9 8 8 10 12 12 14 19 22 23 21 20 19 20 23 25 25 25 24 24 24 25 27 19 16 22 28 25 21 18 14 16 13 6 16 20 17 17 16 13 14 13 10 12 16 10 5 8 8 7 5 3 4 4 4
17 18 18 18 18 18 18 18 18 18 18 18 19 19 19 19 19 18 18 18 17 17 17 15 14 13 13 15 15 13 12 12 12 10 9 9 9 11 12 12 15 20 23 23 22 21 21 23 24 25 25 24 24 24 26 28 23 15 20 25 19 16 15 10 12 14 10 17 22 22 22 17 12 12 14 11 10 15 11 5 6 6 6 5 3 4 4 4
18 18 18 18 18 18 18 18 19 18 19 18 18 20 19 19 19 20 19 19 18 19 19 17 14 14 14 13 14 15 13 13 14 12 10 9 9 10 12 13 13 16 20 24 25 24 23 23 24 25 25 24 23 24 28 28 24 18 14 20 17 16 15 8 11 15 14 18 22 24 23 16 12 12 13 12 9 13 13 6 5 4 6 5 4 6 6 5
20 19 19 19 19 19 18 19 19 19 20 19 18 20 20 18 19 21 20 18 19 20 20 18 14 15 16 13 12 15 14 12 14 14 12 10 10 10 11 12 13 14 17 21 24 25 25 24 24 25 25 24 23 26 27 22 20 20 15 14 15 16 17 16 17 18 17 18 20 23 21 16 15 12 13 13 10 12 14 10 6 3 5 6 5 7 8 7
21 21 21 21 20 20 19 20 20 21 22 22 21 21 22 19 20 22 20 20 21 21 21 18 15 16 18 14 12 15 15 13 15 17 15 12 12 11 11 12 13 14 15 17 21 24 26 27 27 25 23 22 23 23 21 17 17 21 18 8 9 12 14 15 20 23 22 20 23 24 20 18 16 12 14 16 12 11 13 12 8 5 5 5 5 6 9 9
22 22 23 22 22 21 20 20 21 21 22 24 24 24 24 22 22 24 21 21 23 23 22 20 16 15 19 18 14 16 16 14 16 18 17 14 13 12 12 13 13 14 14 14 16 21 24 28 28 23 20 20 22 22 20 18 19 22 22 13 14 11 8 9 15 23 21 21 27 26 18 17 17 12 15 19 15 12 13 13 10 7 6 5 5 6 9 11
24 24 25 25 25 23 21 21 21 21 22 24 25 25 26 24 25 26 24 22 24 25 23 23 19 14 18 22 17 16 18 15 15 18 18 17 15 14 13 14 14 13 14 14 15 18 22 23 23 22 22 21 22 24 22 19 20 22 24 20 20 18 14 8 14 23 25 22 23 24 17 16 18 15 15 18 18 16 14 14 12 10 8 7 7 6 9 11
26 27 27 28 29 28 25 24 24 24 24 24 25 26 26 26 26 28 27 24 24 27 25 24 23 16 18 24 20 19 19 16 15 17 19 19 17 17 16 14 15 14 15 17 16 17 17 15 17 23 24 23 23 25 25 21 22 24 25 25 23 23 21 16 16 24 29 23 19 21 21 20 20 18 15 16 19 18 15 14 13 12 10 8 8 7 9 11
29 29 30 30 31 32 30 28 28 28 27 26 27 27 27 27 28 28 28 25 23 27 28 26 25 19 16 21 23 22 19 17 17 17 19 20 17 19 19 16 15 17 17 17 17 16 14 10 15 22 24 25 25 26 26 25 25 25 26 27 24 23 23 20 17 21 27 25 22 22 26 27 24 21 17 16 18 18 16 15 14 14 11 9 9 8 9 10
33 32 32 33 34 35 34 32 32 32 31 30 29 30 30 30 30 29 29 27 22 24 30 30 26 21 19 23 26 22 17 18 19 18 21 20 18 20 20 18 18 18 16 17 17 17 13 10 15 20 23 26 26 27 27 27 27 25 27 28 25 26 27 23 18 15 20 27 28 25 27 31 27 22 20 17 18 19 19 18 17 15 13 11 10 9 9 9
37 35 34 34 36 37 38 36 36 36 34 34 33 33 34 33 32 31 30 30 24 21 29 32 27 22 24 28 27 23 22 21 20 21 23 21 19 20 20 22 21 18 16 17 18 17 14 13 17 20 22 25 28 29 28 28 27 26 27 27 27 27 26 25 21 15 16 25 31 28 27 29 25 21 21 19 18 20 21 21 20 18 16 14 11 10 10 10
40 38 36 36 36 37 40 39 38 39 37 36 35 35 36 36 36 35 34 34 27 22 28 31 28 25 27 29 27 27 27 22 20 24 25 21 19 20 23 24 21 19 18 19 20 19 15 15 17 19 21 24 28 30 29 28 29 28 25 25 29 28 24 25 23 18 19 24 29 29 26 27 27 25 23 22 21 21 23 23 21 20 19 16 13 12 12 12
42 42 39 38 38 37 39 41 40 40 39 37 36 37 37 37 37 37 37 38 33 28 28 28 28 28 26 28 29 29 28 24 24 25 24 22 20 21 25 25 21 20 20 23 23 18 15 17 18 18 19 22 25 28 29 29 31 28 23 25 31 31 26 25 25 23 23 24 30 32 27 27 31 31 28 26 25 24 25 24 22 22 20 16 14 13 13 14
44 44 43 42 41 40 40 43 43 42 40 39 39 39 38 38 38 37 39 41 37 32 31 29 29 29 28 29 30 28 29 29 27 24 23 26 24 24 26 24 21 21 23 27 25 17 16 19 19 18 19 20 22 25 27 30 32 28 23 27 29 30 30 27 27 29 27 24 30 34 32 32 32 29 28 28 26 26 27 24 23 23 21 17 16 15 14 15
45 45 45 44 44 44 42 44 47 46 44 42 42 42 41 41 40 40 42 42 37 33 34 34 32 31 31 32 30 29 31 32 30 27 28 29 28 26 25 24 24 24 27 30 26 21 21 19 19 21 21 20 20 22 25 29 32 27 25 28 29 28 30 30 29 30 30 30 30 33 34 35 34 31 32 32 29 27 26 23 23 24 21 20 19 18 17 16
46 47 47 46 46 46 46 46 47 48 48 47 46 45 44 44 43 43 46 44 38 36 38 38 36 35 36 35 32 30 31 33 34 35 34 33 32 29 26 26 29 28 29 31 29 25 22 21 23 24 22 20 19 20 24 27 29 28 27 30 31 29 28 29 30 29 33 38 34 31 32 34 36 36 35 32 26 24 24 23 25 25 23 23 22 21 21 18
49 50 50 50 49 49 49 50 49 48 50 50 49 48 47 46 45 47 48 43 39 40 42 41 40 41 40 39 37 34 33 33 36 39 39 37 36 34 31 30 31 31 31 32 30 25 23 25 26 24 22 22 21 22 23 25 28 30 30 32 33 32 30 32 32 31 37 42 38 33 31 31 36 38 37 32 25 23 24 24 27 27 25 25 24 23 23 21
52 52 53 53 53 52 52 53 52 51 52 53 52 51 50 49 50 51 47 42 42 44 44 43 44 45 44 42 41 40 38 36 36 40 41 39 38 37 34 32 31 32 32 30 27 25 26 27 25 25 24 23 24 24 23 25 27 30 32 34 36 35 33 36 39 38 42 44 38 32 31 33 36 37 38 35 27 25 26 26 28 28 26 25 25 25 25 23
55 55 55 56 55 54 54 54 55 54 53 54 54 53 53 53 54 50 45 43 45 44 44 45 46 48 48 46 44 43 42 40 38 39 41 41 40 39 37 35 35 35 33 30 29 29 29 28 27 29 27 25 25 25 24 25 27 29 32 36 39 40 39 41 43 43 43 42 38 33 33 37 39 40 42 40 32 25 24 25 27 28 28 26 25 24 25 24
58 58 58 59 59 58 57 56 57 56 56 55 55 55 56 57 55 49 46 46 45 43 44 45 46 48 51 50 47 45 44 43 40 40 43 44 43 43 41 37 37 39 36 34 35 34 33 31 31 30 27 25 25 26 25 24 26 28 28 33 40 41 43 44 44 45 44 39 36 36 39 39 37 37 37 36 33 27 24 26 27 28 29 28 27 24 25 26
61 61 61 61 61 62 61 60 60 60 60 59 58 59 58 57 55 51 49 48 46 44 45 45 46 49 51 51 50 48 46 45 43 41 44 47 47 45 44 41 38 39 39 38 37 36 36 35 31 29 27 26 26 25 25 26 28 27 27 31 35 35 40 44 45 44 42 40 40 40 40 37 33 31 28 26 30 29 28 30 29 29 30 29 27 25 26 27
62 61 62 62 62 63 63 63 62 62 62 63 63 62 60 58 56 55 53 51 50 49 49 48 48 50 51 50 51 51 49 48 47 45 46 48 49 47 46 45 41 40 41 40 37 36 37 35 31 29 29 29 29 27 26 29 30 27 29 32 27 28 37 43 44 41 38 43 45 41 39 38 35 33 27 26 30 31 29 30 29 29 30 31 28 25 27 28
63 62 63 64 63 63 64 64 64 64 64 65 66 65 62 61 60 58 57 55 54 54 54 52 50 51 52 51 50 51 51 51 50 50 50 50 50 49 48 47 45 43 42 41 39 37 37 36 33 31 32 31 30 29 29 31 31 29 32 31 25 29 38 42 43 41 40 45 46 42 42 42 39 36 29 24 26 30 30 29 29 27 27 30 29 25 24 25
66 64 64 66 66 65 65 65 65 65 65 66 67 65 64 64 62 61 60 58 57 57 57 56 54 53 53 53 52 49 48 51 54 52 52 53 51 49 48 48 47 45 43 41 41 39 36 37 37 35 35 33 31 32 34 35 34 32 31 29 28 34 39 42 45 44 44 47 47 43 42 43 43 41 32 23 22 25 29 30 30 28 28 30 30 27 24 23
70 68 67 68 68 67 67 67 66 65 66 66 66 65 64 63 62 62 61 60 58 58 59 58 57 57 56 56 56 52 45 44 49 52 51 54 54 50 50 50 48 47 45 42 42 40 38 39 39 37 36 35 36 38 40 39 36 33 32 32 33 35 37 39 41 42 44 47 47 45 44 44 45 39 30 23 21 23 27 29 30 27 28 31 29 25 25 24
73 71 70 70 70 69 69 69 68 68 67 66 65 65 64 63 63 62 62 62 61 61 62 61 60 60 60 59 59 59 53 43 40 45 49 52 53 52 51 52 50 49 47 45 43 40 39 42 40 36 35 37 41 44 43 40 38 35 35 36 37 37 36 34 35 38 41 43 45 46 46 46 44 38 32 29 26 26 28 28 27 25 25 28 27 24 25 24
76 74 72 72 71 70 70 70 70 70 70 67 66 66 65 65 65 63 63 64 63 63 64 64 64 63 63 62 61 61 61 54 45 39 43 48 50 49 50 52 52 49 47 49 49 44 41 43 43 40 39 42 44 44 42 41 39 35 35 36 37 38 37 35 38 40 40 41 42 42 44 44 40 36 34 33 29 26 26 25 26 28 28 29 27 25 26 25
78 75 71 70 72 72 72 71 71 72 72 70 67 66 66 66 67 66 65 66 66 66 66 65 66 66 65 66 64 60 60 60 56 48 42 43 46 47 46 45 45 46 46 48 52 50 44 42 44 45 44 43 42 40 41 44 42 37 36 36 35 38 40 40 40 40 39 41 40 41 43 42 39 34 25 22 23 23 22 25 29 30 30 30 30 29 31 30
79 75 67 66 69 72 72 71 70 70 70 69 67 66 66 67 68 68 68 69 69 69 69 68 67 67 67 67 67 63 59 59 62 59 53 46 44 45 42 39 38 40 43 44 47 50 48 45 46 47 46 43 40 37 38 42 45 43 42 40 38 39 42 41 40 37 37 40 41 42 42 37 36 37 27 18 19 23 25 27 29 29 29 31 30 30 33 32
77 73 64 60 63 67 69 68 67 66 66 68 68 68 67 66 67 69 70 71 71 71 72 72 70 70 69 68 68 66 62 61 63 65 62 56 48 41 38 39 39 37 38 41 42 45 50 52 50 47 47 47 44 41 39 41 46 49 47 43 42 41 40 40 40 38 38 41 42 43 42 35 32 34 33 28 24 25 29 29 25 25 30 32 28 25 26 23
73 69 61 55 56 60 63 64 63 63 63 64 66 67 66 67 68 71 73 74 75 76 77 76 76 75 75 74 73 71 68 66 66 66 66 64 55 46 44 43 41 39 38 38 39 41 47 52 53 51 53 54 53 51 48 45 47 51 50 46 43 42 40 40 42 42 43 44 42 42 42 35 30 31 31 34 33 31 32 30 24 23 29 31 25 22 23 19
68 65 57 52 52 54 57 58 59 59 60 62 65 67 68 70 69 71 74 76 78 79 80 80 79 80 80 79 79 77 73 72 72 70 70 69 62 55 54 52 47 45 45 42 39 40 44 48 54 57 58 57 54 51 49 45 44 50 51 48 44 42 40 39 42 45 46 45 43 42 39 34 30 30 30 28 31 34 37 37 29 23 27 30 26 23 23 22
62 58 53 50 49 49 50 53 55 57 59 61 63 65 65 66 66 67 68 71 74 77 79 79 80 81 81 80 81 81 78 76 76 75 75 75 71 66 61 57 54 52 52 51 47 43 44 48 53 56 58 56 51 48 48 47 46 47 49 48 47 44 40 40 43 45 44 46 46 42 38 34 32 31 29 22 21 28 34 37 35 29 27 29 30 27 24 23
52 50 47 46 45 44 44 47 50 52 53 55 57 59 58 58 59 60 63 67 70 73 75 76 79 80 81 80 80 82 81 79 77 78 78 77 75 73 67 60 57 57 54 50 50 48 47 49 52 53 53 54 51 46 47 49 48 43 43 46 48 48 44 43 43 43 42 46 47 42 41 40 34 30 29 24 22 26 28 29 32 33 30 29 31 31 28 26
41 41 39 39 39 37 37 40 42 45 47 48 50 51 51 52 52 53 56 60 63 67 69 72 74 76 79 79 78 80 82 81 80 79 79 78 76 75 70 62 58 59 57 52 49 49 50 51 52 52 51 51 52 50 48 48 46 41 39 43 46 48 48 45 43 41 40 42 42 40 43 45 40 32 28 27 28 30 31 30 32 34 36 34 34 35 34 32
30 30 30 31 31 31 32 33 35 39 41 42 44 45 44 46 48 49 51 54 57 59 62 66 69 71 75 77 77 77 81 84 84 83 82 80 78 77 72 66 59 56 56 57 55 53 53 54 55 55 53 52 52 50 49 49 48 44 39 38 40 43 44 43 41 39 39 40 39 39 42 44 44 40 33 31 32 31 32 34 35 36 39 39 39 39 39 40
22 22 23 23 23 23 27 29 29 32 33 34 38 41 40 41 41 43 47 52 56 56 56 62 66 66 67 72 75 75 79 84 86 86 85 82 80 80 77 71 65 56 52 54 57 56 54 56 59 58 58 59 52 44 44 47 49 49 46 40 38 38 37 36 36 36 39 41 40 40 42 42 42 43 39 37 38 37 34 34 36 38 40 41 42 43 42 40
16 17 18 19 18 18 23 26 26 26 26 28 31 34 35 35 35 37 40 45 51 53 53 57 63 62 60 64 69 71 75 82 85 86 87 85 82 82 80 76 71 64 56 52 55 58 55 55 61 63 62 63 55 43 38 39 45 55 59 51 41 35 32 31 32 33 36 38 38 40 43 41 38 41 44 44 45 45 42 38 38 40 40 39 41 43 43 39
Wind_Direction
330 332 333 334 337 339 342 345 347 349 349 346 341 333 325 317 309 305 302 300 302 303 302 288 273 264 260 256 250 245 243 242 243 255 269 309 164 214 228 217 223 233 233 233 223 205 193 189 194 193 198 205 186 173 171 157 173 163 290 196 173 238 205 206 314 308 257 303 313 314 318 312 314 313 301 277 260 258 261 258 250 251 250 250 246 234 228 224
328 330 330 330 331 332 333 335 337 341 344 347 348 346 340 332 323 314 308 303 301 297 298 296 288 274 265 261 255 249 244 242 239 246 259 259 193 216 228 223 223 227 228 231 225 211 200 196 194 195 200 206 195 179 180 176 170 153 120 164 173 262 241 238 276 302 292 310 328 328 327 313 317 314 307 296 250 243 251 251 248 254 259 265 260 246 245 239
326 328 329 330 332 332 332 331 331 332 334 337 339 344 345 344 341 332 322 313 308 301 294 291 291 287 275 267 261 255 245 241 243 242 247 245 219 223 234 233 228 225 224 225 225 217 208 205 197 196 202 207 198 178 185 188 164 126 119 127 136 265 288 283 255 262 292 319 342 326 328 325 318 309 313 316 282 260 248 257 253 259 267 269 263 256 257 249
319 321 323 325 328 329 328 328 329 328 329 329 330 333 335 339 343 343 341 333 322 312 304 295 288 288 284 276 268 262 252 240 245 243 238 241 227 226 240 241 232 224 220 220 222 219 214 212 204 200 204 207 197 179 184 182 154 126 111 77 27 327 325 313 273 257 292 311 333 321 329 337 314 302 308 308 295 297 290 294 271 258 273 269 264 264 260 252
310 309 311 313 316 317 319 321 322 324 325 325 325 325 326 329 332 338 342 344 341 331 320 310 300 292 286 283 275 270 260 240 240 242 233 234 229 227 240 244 236 224 219 221 218 219 219 215 212 206 207 211 197 183 187 176 155 139 123 62 21 346 334 340 310 328 318 314 333 315 329 343 309 300 305 304 297 300 312 324 290 267 276 274 269 268 262 257
303 301 302 304 307 309 312 314 315 318 318 319 320 320 321 321 323 327 332 338 343 343 338 330 320 308 299 290 279 274 266 243 235 241 236 230 227 226 235 242 238 227 223 222 216 219 221 218 218 213 212 215 203 197 198 180 158 148 146 133 17 349 335 329 316 320 310 310 329 292 313 331 317 305 307 309 300 300 312 306 293 286 285 283 277 274 267 262
300 299 301 302 304 308 312 312 314 315 314 315 315 316 316 316 317 318 321 327 332 337 339 339 336 326 319 307 291 274 270 251 230 234 236 229 226 227 231 236 237 232 228 223 218 219 220 221 221 219 219 217 211 216 221 206 184 178 168 108 356 335 325 316 310 308 285 275 306 274 297 318 308 301 309 307 297 312 354 304 292 295 294 290 283 283 276 268
298 298 299 300 303 307 310 312 314 316 315 314 312 313 312 312 312 311 313 315 320 326 328 333 337 336 332 323 310 284 269 260 238 235 239 235 229 232 233 234 235 231 228 224 219 217 219 221 221 221 222 218 215 212 214 217 203 204 202 351 335 322 316 305 298 296 277 270 316 279 283 299 286 289 301 286 286 315 1 328 302 297 297 293 279 283 281 266
293 294 294 295 298 300 303 305 308 311 312 313 312 312 310 309 309 308 309 308 311 313 316 322 325 331 333 329 321 305 288 272 261 250 249 242 231 235 237 236 235 232 229 227 222 219 219 219 219 222 221 218 220 214 186 152 89 17 309 305 305 307 307 298 291 282 277 292 292 264 261 276 277 279 279 272 282 310 338 315 299 287 286 282 275 280 281 262
289 289 288 289 291 294 298 298 300 303 305 307 308 309 308 308 307 305 306 305 307 306 307 310 312 319 322 324 320 316 319 287 275 269 261 248 233 232 237 238 235 234 232 229 226 223 222 220 219 221 220 218 218 220 205 157 128 86 305 290 286 297 298 294 293 275 274 292 271 252 265 261 263 264 264 266 282 309 319 301 290 275 277 276 276 276 275 264
286 285 285 286 288 290 293 295 297 298 300 302 303 305 305 305 305 304 304 303 303 302 302 303 303 307 308 311 311 314 325 305 280 274 270 260 240 230 233 238 236 234 234 232 230 224 222 220 220 220 220 221 221 225 218 175 153 152 225 267 280 297 290 279 292 282 272 282 262 258 271 262 257 255 262 266 278 304 315 303 298 282 279 278 277 272 266 263
285 284 284 285 286 289 291 293 295 297 298 299 300 302 302 304 305 304 304 302 301 299 299 299 299 301 299 300 303 305 311 311 296 279 272 268 254 234 229 235 237 234 233 233 232 226 222 219 221 224 223 223 225 230 225 209 206 186 190 219 249 268 276 277 299 296 263 241 254 265 272 271 261 251 260 271 278 294 313 304 302 291 280 273 271 265 253 253
284 284 284 285 286 288 290 292 294 295 295 296 296 298 299 301 302 303 303 302 302 299 298 297 296 298 295 293 296 295 300 308 305 294 279 272 268 249 232 231 235 235 232 232 233 228 223 220 222 225 226 227 226 221 217 219 209 178 186 198 213 225 258 275 289 295 269 237 257 268 273 268 253 256 265 269 277 289 306 294 293 295 281 269 263 253 241 241
281 281 282 283 284 285 287 289 290 291 292 292 293 293 294 296 297 299 300 300 301 300 299 297 293 295 294 292 290 288 293 297 296 298 289 278 273 265 245 232 232 234 232 230 232 231 227 223 223 224 226 228 231 222 216 225 205 175 199 202 198 203 226 252 268 290 260 232 253 263 270 263 245 257 264 262 275 286 295 279 283 293 287 275 258 238 230 235
277 276 276 277 278 279 281 283 284 286 288 289 290 291 291 292 293 294 295 296 298 298 298 297 294 295 292 290 289 286 288 290 290 291 286 282 275 269 260 242 234 233 233 231 230 233 231 229 228 227 228 227 230 229 225 237 230 190 194 194 190 199 205 222 254 279 240 228 252 263 269 269 252 254 260 264 276 284 288 267 271 284 285 281 245 224 216 223
276 274 273 273 274 274 275 276 278 279 281 284 287 288 288 290 291 290 291 291 293 295 293 293 297 299 291 287 289 287 285 283 281 281 280 279 274 269 266 255 242 234 234 234 231 231 231 232 232 230 231 229 228 231 233 241 243 217 189 186 185 191 191 191 234 260 251 235 249 258 264 266 252 251 262 273 280 282 285 262 258 274 274 267 225 210 194 184
280 277 275 275 274 274 274 274 275 276 276 279 281 284 286 288 290 289 287 288 289 289 287 289 296 299 292 289 290 286 279 276 278 280 275 272 271 268 266 261 253 241 234 235 233 231 230 230 233 232 231 232 229 227 231 237 239 236 207 197 195 173 177 210 246 259 253 237 244 251 256 257 250 251 258 271 283 281 284 269 249 263 260 251 220 205 184 169
285 282 280 278 277 277 277 276 276 277 277 277 276 279 282 285 288 287 286 287 285 282 281 284 290 291 290 291 287 281 278 276 276 276 269 267 266 264 266 263 259 251 240 238 237 234 233 232 232 233 232 232 231 228 232 237 235 239 237 218 208 184 186 217 244 261 260 251 252 251 253 251 246 249 253 268 287 281 281 276 254 242 248 240 221 208 192 183
288 286 285 283 281 280 280 279 279 279 279 279 277 276 278 281 282 281 284 284 281 278 279 280 283 283 284 286 282 278 278 275 272 272 268 264 261 259 262 263 262 259 251 245 242 238 236 235 233 234 237 235 234 235 239 243 234 236 241 213 176 187 179 189 226 253 263 265 261 255 257 253 245 243 250 264 280 276 276 279 267 242 242 242 229 212 203 200
286 286 286 286 285 283 282 281 280 280 280 280 279 277 276 277 277 276 277 279 279 278 278 277 274 276 280 279 276 276 274 269 267 271 271 265 261 257 256 259 260 260 260 252 245 243 240 240 239 239 242 242 239 240 240 238 231 233 232 190 153 181 168 162 232 253 263 271 265 258 257 253 248 242 246 258 265 265 273 280 273 252 237 240 237 221 214 211
281 281 282 284 284 284 283 282 281 280 279 280 280 280 279 278 275 273 272 272 276 276 276 276 272 271 276 273 269 271 272 269 265 268 270 266 262 258 252 255 259 259 260 254 244 241 244 247 245 241 239 238 236 236 236 229 223 229 231 204 179 193 195 195 245 257 269 277 261 256 265 261 254 248 246 257 261 263 269 270 269 258 239 231 233 226 222 219
277 276 277 278 279 280 279 279 280 280 280 280 280 280 280 279 276 274 272 270 273 273 273 275 272 266 267 273 274 267 265 266 262 261 266 265 263 262 255 251 255 255 252 254 253 249 254 257 246 238 234 233 232 232 232 225 218 222 228 221 201 190 191 201 233 255 269 274 252 253 274 273 263 258 249 250 259 263 261 258 262 258 242 230 230 224 222 220
275 273 273 273 275 275 275 276 277 277 279 279 281 282 281 279 277 275 273 270 270 271 272 270 268 269 273 275 272 262 259 264 262 257 261 263 261 261 259 253 252 252 253 258 263 262 264 262 246 238 233 233 231 231 229 222 221 218 217 224 213 185 178 187 215 250 265 270 261 261 274 276 270 263 248 240 253 263 260 258 261 256 245 232 230 227 224 219
275 273 271 271 272 272 272 272 272 273 275 276 278 280 279 277 276 276 275 271 267 269 272 268 264 270 272 263 262 265 267 263 261 257 257 259 258 258 260 258 253 252 256 259 262 264 261 246 239 236 232 233 233 233 230 222 222 217 211 218 208 183 174 175 191 232 259 264 264 260 263 269 270 263 257 250 248 255 259 260 260 256 248 237 231 229 230 227
277 274 271 270 270 271 272 270 271 271 272 273 275 274 273 274 275 275 274 271 266 263 269 270 268 265 262 260 264 271 267 258 259 260 257 255 254 256 257 255 254 255 255 255 258 261 257 240 236 234 229 230 231 233 233 227 224 218 213 213 203 190 180 176 184 200 229 246 254 257 257 264 270 264 263 263 252 247 252 257 257 253 246 238 231 223 228 235
278 275 273 270 269 271 271 271 270 271 271 272 273 272 271 272 272 271 272 271 267 260 262 268 270 264 260 262 263 262 261 258 256 254 255 254 250 252 255 254 255 254 253 253 254 254 252 243 241 239 232 229 231 232 232 230 227 221 213 208 208 209 195 177 180 203 229 240 249 256 256 260 269 269 267 267 259 249 248 251 251 250 246 238 231 220 221 230
277 276 274 272 269 269 271 272 271 270 270 272 272 271 270 270 270 270 271 270 268 263 260 263 267 266 262 260 258 258 260 258 252 251 256 258 251 247 251 253 252 251 252 253 253 253 252 248 246 243 238 234 234 235 231 229 231 226 213 208 211 216 210 184 173 199 231 249 258 260 256 254 262 270 275 272 262 251 245 246 247 251 250 243 238 225 220 228
276 276 275 273 271 269 270 272 272 270 270 271 271 270 269 269 269 269 269 269 269 268 266 263 262 263 262 259 257 257 258 256 253 255 256 256 250 245 247 252 251 247 248 251 253 251 247 248 250 247 242 240 238 238 233 230 234 229 213 214 214 212 215 202 183 190 209 232 253 259 259 259 261 267 274 275 269 256 245 241 243 249 252 249 248 239 226 227
276 276 275 274 273 271 270 270 271 272 271 270 270 269 268 268 267 268 267 266 267 269 268 264 261 261 261 260 258 255 255 255 255 253 251 252 253 249 248 250 249 244 244 250 250 244 243 247 250 249 246 243 238 237 236 232 235 232 218 219 220 214 214 211 202 196 200 215 237 254 261 264 266 269 271 273 273 264 252 246 246 248 248 247 250 251 241 231
275 275 275 274 274 273 272 270 269 271 272 270 269 269 268 267 267 266 264 264 267 267 266 266 264 262 259 258 257 255 254 254 254 251 249 250 252 250 247 245 246 244 243 247 248 242 243 245 245 249 251 248 241 235 236 236 234 230 221 219 221 218 213 218 222 215 212 214 219 236 253 262 266 267 269 270 269 264 260 256 252 249 248 246 245 249 249 242
274 274 274 274 273 274 274 272 269 270 270 270 269 269 267 267 266 264 263 266 268 267 265 266 265 262 259 257 256 254 252 251 252 252 249 247 248 249 247 245 247 248 246 247 250 247 244 245 246 249 250 248 243 235 234 235 231 227 222 218 220 218 211 214 223 228 230 224 215 218 234 252 263 265 267 268 263 263 268 264 256 250 247 245 244 245 250 247
276 275 275 274 273 273 273 272 270 269 269 269 269 268 267 267 264 263 266 269 267 266 265 264 263 262 260 257 255 253 251 250 251 253 252 249 248 248 247 248 249 250 250 251 254 251 247 247 248 247 244 243 242 239 234 232 231 227 222 217 216 217 213 212 215 222 231 230 222 216 221 236 250 257 263 263 258 264 271 266 259 252 244 241 243 244 246 244
278 277 277 276 275 274 273 272 271 270 269 269 268 268 268 266 264 265 268 267 265 265 265 264 263 262 260 257 254 254 253 253 251 253 254 251 249 248 245 245 246 246 246 248 248 244 242 242 241 241 239 237 240 243 240 238 236 232 225 220 218 216 216 218 218 220 227 230 227 222 225 235 239 242 250 254 255 263 268 261 256 253 245 241 240 237 238 239
278 277 276 276 274 274 273 272 270 270 269 268 268 268 267 265 266 267 267 265 264 263 263 263 262 262 262 260 256 253 252 253 253 253 254 252 250 248 245 243 245 247 245 243 244 243 241 240 239 242 243 241 240 243 244 243 241 243 237 227 226 225 224 226 226 225 226 229 230 228 232 238 242 244 248 254 259 265 270 268 264 257 247 240 237 232 232 237
276 275 274 273 272 272 271 270 269 268 268 267 267 266 265 265 267 268 267 265 262 258 255 255 257 259 261 261 260 256 252 251 251 250 252 253 251 250 249 246 245 248 248 245 246 247 247 246 243 244 246 245 242 237 238 240 238 242 240 231 234 239 234 231 231 231 229 228 230 233 235 239 248 252 247 248 256 261 266 272 272 264 251 242 239 231 229 236
274 274 273 271 270 270 269 268 267 266 266 266 265 265 265 266 266 266 264 262 260 257 253 251 252 254 255 257 259 259 256 253 251 250 250 251 251 251 249 247 245 246 248 248 247 248 251 251 248 244 243 243 244 237 232 238 241 238 237 239 244 241 231 229 231 232 230 232 235 234 232 236 245 248 240 237 247 253 257 266 272 265 254 247 245 236 230 237
275 275 274 273 270 269 268 267 266 265 264 263 263 264 264 264 264 263 262 260 257 257 255 253 250 249 251 251 253 256 258 258 255 253 253 252 250 250 249 248 246 245 246 248 248 247 249 251 248 244 242 241 245 243 235 236 240 237 236 239 237 229 226 227 230 230 229 235 240 236 230 231 236 242 245 241 241 245 248 259 267 264 255 250 248 242 235 239
278 278 277 275 272 271 269 267 266 265 264 263 263 263 262 262 261 261 260 258 256 255 255 254 251 247 247 248 247 247 250 255 256 254 254 254 251 249 249 249 248 247 245 246 247 245 244 246 246 244 243 240 238 241 239 234 232 232 235 235 229 228 229 227 228 231 231 235 241 239 233 233 236 242 247 247 244 244 248 255 260 263 262 257 251 243 234 236
281 281 280 278 276 274 272 270 268 266 264 263 263 262 261 261 259 258 256 255 253 252 251 251 250 247 245 245 245 240 235 242 253 255 253 254 253 250 249 249 249 248 245 243 244 245 242 242 243 243 245 244 239 238 238 236 231 227 228 230 229 231 235 236 236 236 235 238 242 241 236 237 241 243 239 238 242 244 249 255 258 264 268 265 260 250 237 235
283 282 281 279 278 275 273 272 269 266 265 263 262 261 259 258 257 255 253 251 249 248 248 246 245 244 244 243 243 241 232 225 238 252 254 253 253 252 250 249 249 249 248 244 241 240 240 241 239 236 238 243 244 242 240 239 236 231 230 234 234 233 234 237 242 241 237 238 243 243 241 241 243 242 234 231 232 235 242 251 261 269 270 269 265 251 239 234
285 284 282 279 277 275 273 272 270 268 266 264 261 259 257 255 253 252 251 250 248 246 246 245 243 242 241 240 240 241 239 229 222 233 248 251 250 249 249 250 250 250 249 248 243 236 233 238 239 233 230 238 245 247 248 247 243 237 235 239 242 242 237 235 241 244 238 240 245 247 248 246 241 240 242 239 232 230 239 251 264 269 268 268 266 256 252 246
286 284 281 278 276 275 273 271 269 268 266 264 261 257 255 253 251 249 247 246 245 243 242 241 242 241 239 238 237 236 237 233 224 218 227 240 244 243 244 246 251 253 252 249 247 244 237 235 239 238 233 235 240 245 251 253 250 243 236 234 236 240 240 238 240 240 236 241 247 248 251 249 239 233 238 242 231 225 238 252 259 263 265 267 267 265 267 265
285 284 279 274 273 274 272 269 268 265 263 263 259 254 252 250 248 247 245 243 242 241 239 238 237 238 237 236 235 232 229 229 227 221 216 221 232 238 240 241 244 250 253 251 247 248 246 237 234 238 238 236 234 236 243 250 252 248 239 232 227 232 239 241 240 236 234 241 245 246 252 256 247 236 227 227 225 218 229 245 251 256 262 265 267 266 264 264
284 282 277 270 268 270 269 267 265 261 259 258 256 252 249 246 244 243 241 240 239 238 237 235 233 232 232 231 230 228 224 222 225 224 218 213 215 221 229 235 236 238 246 249 244 243 247 243 236 232 234 233 227 221 226 238 245 247 244 237 229 229 232 236 237 232 231 239 242 244 252 261 260 248 231 220 218 215 224 239 247 249 253 257 259 256 256 254
282 280 274 266 263 264 265 264 260 257 255 254 252 250 247 243 240 239 238 237 236 234 233 232 231 230 228 226 226 225 222 219 219 221 220 216 210 206 210 219 227 230 234 241 242 238 240 245 244 237 233 232 229 224 223 229 239 245 246 243 237 231 229 231 233 232 234 241 241 243 252 258 260 261 247 225 214 212 219 230 239 246 252 258 254 241 246 250
279 277 271 264 259 259 259 258 256 253 251 249 248 247 245 242 239 236 236 236 234 233 232 231 230 229 227 225 225 224 221 217 216 217 218 215 209 201 200 205 212 219 221 223 230 234 233 237 243 243 240 238 237 234 228 225 233 245 249 250 248 240 234 232 231 234 240 241 238 243 252 251 244 251 258 242 221 216 219 220 224 239 254 260 254 237 238 249
276 274 269 263 258 255 253 252 251 251 251 250 250 248 247 245 242 237 236 238 236 235 234 233 231 230 228 226 225 223 219 216 216 216 216 215 213 207 202 202 204 210 213 211 213 223 229 231 237 242 243 241 238 236 229 222 227 239 247 251 253 249 242 237 235 238 240 236 238 244 247 242 235 234 244 250 233 225 227 226 224 230 242 250 247 235 230 237
273 271 269 265 260 255 251 249 249 250 251 252 253 252 250 247 245 240 237 238 238 237 235 234 233 232 230 228 225 223 219 215 214 215 215 215 216 213 206 200 201 206 211 209 207 213 222 229 234 238 242 242 239 234 230 225 223 230 240 246 249 250 248 244 242 244 241 237 241 246 240 238 238 231 229 233 230 227 234 240 237 230 229 236 241 233 224 224
274 271 268 267 265 260 253 249 248 249 250 251 253 254 252 248 245 242 239 238 238 238 238 236 234 233 232 229 226 223 220 217 213 213 213 213 213 211 205 198 199 205 208 207 206 211 220 226 230 233 238 241 239 233 229 225 217 218 233 242 244 247 250 248 245 245 245 244 245 243 237 237 238 233 222 216 216 219 225 235 241 235 227 230 238 237 225 219
277 275 271 268 268 266 261 254 251 250 250 252 255 255 253 250 245 241 239 238 237 236 236 236 234 233 232 230 227 224 220 218 215 212 212 211 211 209 204 197 197 203 207 206 204 208 216 222 225 228 231 235 237 234 228 223 214 210 220 235 239 241 244 247 245 242 240 243 243 239 235 235 235 232 221 208 205 208 216 225 232 234 232 229 234 239 231 221
278 276 272 267 266 267 263 258 255 254 252 252 253 253 251 247 244 241 238 238 238 235 234 234 232 231 231 230 227 224 221 218 216 213 211 210 209 208 205 197 195 200 204 203 201 202 208 217 222 224 225 228 232 231 228 222 211 205 210 219 230 236 237 240 246 246 241 239 239 238 237 235 232 228 223 215 208 207 215 225 227 230 232 228 229 236 236 228
274 269 267 265 264 263 261 258 257 257 254 249 248 249 246 242 241 242 241 239 239 238 236 235 232 229 230 230 228 225 221 219 217 214 212 209 207 207 205 199 196 199 203 201 199 199 201 210 219 221 221 225 223 218 223 223 212 212 215 212 212 225 231 232 239 246 249 245 239 237 238 237 233 230 227 224 220 217 217 221 225 230 234 233 229 232 235 234
Height
5899 5898 5898 5897 5897 5896 5896 5895 5895 5894 5893 5893 5892 5892 5891 5890 5890 5889 5888 5888 5888 5887 5887 5886 5886 5886 5886 5887 5888 5889 5889 5889 5890 5890 5889 5890 5890 5890 5890 5891 5891 5892 5892 5893 5895 5897 5898 5899 5899 5900 5901 5901 5903 5904 5905 5906 5907 5907 5908 5908 5910 5910 5910 5911 5909 5908 5908 5910 5911 5911 5911 5910 5909 5910 5910 5910 5909 5909 5909 5910 5911 5912 5912 5913 5913 5913 5913 5913
5898 5897 5897 5896 5896 5895 5895 5894 5894 5893 5893 5892 5892 5891 5890 5890 5889 5889 5888 5887 5887 5887 5886 5886 5886 5885 5885 5886 5886 5887 5888 5888 5889 5889 5888 5889 5890 5889 5889 5890 5890 5891 5892 5893 5895 5896 5898 5898 5899 5900 5900 5901 5902 5904 5904 5906 5907 5908 5909 5909 5910 5911 5911 5911 5910 5909 5908 5908 5909 5910 5910 5910 5909 5909 5909 5910 5909 5909 5909 5909 5911 5912 5912 5912 5913 5913 5913 5913
5897 5897 5896 5896 5895 5894 5894 5893 5893 5892 5892 5892 5891 5891 5890 5889 5889 5888 5888 5887 5887 5886 5886 5885 5885 5885 5885 5885 5885 5886 5887 5888 5888 5888 5887 5888 5889 5889 5888 5888 5889 5890 5891 5892 5894 5895 5897 5897 5898 5899 5900 5901 5902 5903 5904 5906 5908 5909 5909 5910 5911 5911 5911 5910 5910 5909 5909 5908 5908 5909 5909 5909 5909 5908 5908 5908 5908 5908 5909 5909 5910 5911 5911 5911 5912 5912 5913 5913
5896 5896 5895 5895 5894 5894 5893 5892 5892 5891 5891 5891 5890 5890 5889 5889 5888 5888 5887 5887 5886 5886 5885 5885 5884 5884 5884 5884 5884 5884 5885 5887 5886 5886 5887 5887 5888 5888 5887 5888 5888 5889 5890 5891 5893 5894 5895 5896 5897 5898 5899 5900 5901 5903 5904 5905 5907 5908 5909 5910 5912 5912 5911 5911 5911 5910 5910 5908 5908 5908 5909 5909 5908 5907 5907 5908 5907 5907 5908 5909 5910 5910 5910 5910 5911 5911 5912 5913
5895 5895 5894 5894 5893 5893 5892 5892 5891 5890 5890 5889 5889 5889 5888 5888 5887 5887 5887 5886 5886 5885 5885 5884 5884 5884 5884 5884 5884 5883 5884 5885 5884 5884 5886 5886 5887 5887 5887 5887 5887 5888 5889 5890 5891 5893 5894 5895 5896 5897 5898 5899 5901 5903 5904 5905 5905 5906 5908 5910 5911 5912 5912 5911 5911 5911 5911 5909 5908 5909 5908 5909 5908 5907 5907 5907 5906 5906 5908 5909 5910 5910 5909 5910 5910 5911 5912 5912
5894 5894 5893 5892 5892 5892 5891 5891 5890 5890 5889 5889 5888 5888 5887 5887 5887 5886 5886 5885 5885 5885 5884 5884 5884 5883 5883 5883 5883 5883 5882 5884 5883 5883 5884 5885 5885 5886 5886 5886 5886 5887 5887 5889 5890 5892 5893 5894 5895 5896 5898 5899 5900 5903 5904 5904 5904 5905 5908 5909 5909 5911 5911 5912 5912 5911 5911 5910 5910 5909 5909 5909 5908 5907 5907 5906 5905 5906 5908 5909 5909 5909 5910 5909 5910 5911 5911 5912
5893 5892 5892 5891 5891 5890 5890 5889 5889 5889 5888 5888 5887 5887 5886 5886 5885 5885 5885 5885 5884 5884 5884 5883 5883 5883 5882 5882 5882 5882 5882 5882 5882 5881 5882 5883 5884 5884 5884 5885 5885 5886 5887 5888 5889 5890 5892 5893 5894 5896 5897 5898 5899 5901 5903 5903 5903 5904 5906 5907 5908 5910 5911 5911 5911 5911 5911 5911 5910 5910 5909 5909 5909 5908 5907 5907 5905 5905 5908 5908 5908 5909 5909 5910 5910 5910 5911 5911
5892 5891 5891 5890 5890 5889 5889 5888 5888 5887 5887 5887 5886 5886 5885 5885 5884 5884 5883 5883 5883 5883 5883 5882 5882 5882 5882 5882 5881 5881 5881 5881 5880 5879 5880 5882 5883 5883 5883 5884 5884 5885 5886 5887 5888 5889 5890 5891 5893 5895 5896 5898 5899 5900 5901 5902 5903 5903 5904 5905 5907 5909 5911 5911 5910 5910 5910 5909 5910 5910 5910 5909 5909 5909 5909 5907 5905 5906 5908 5908 5908 5908 5909 5910 5910 5910 5910 5911
5890 5890 5889 5889 5889 5888 5888 5887 5887 5886 5886 5885 5885 5885 5884 5884 5883 5883 5882 5882 5882 5882 5882 5881 5881 5881 5881 5881 5881 5881 5881 5880 5879 5879 5880 5880 5881 5882 5882 5883 5884 5884 5885 5885 5886 5887 5888 5890 5892 5894 5896 5898 5899 5898 5899 5900 5902 5904 5905 5906 5908 5910 5911 5912 5911 5909 5909 5908 5909 5910 5910 5910 5909 5909 5909 5907 5905 5907 5910 5910 5910 5909 5909 5910 5910 5910 5910 5910
5889 5888 5888 5887 5887 5887 5887 5886 5885 5885 5885 5884 5884 5883 5883 5883 5882 5882 5881 5881 5881 5880 5880 5880 5880 5880 5880 5880 5880 5880 5880 5880 5879 5879 5879 5879 5880 5881 5881 5882 5883 5883 5884 5884 5885 5886 5888 5890 5891 5893 5894 5896 5897 5897 5898 5899 5900 5904 5907 5908 5909 5910 5910 5912 5912 5910 5909 5909 5910 5910 5910 5910 5910 5910 5909 5907 5905 5908 5910 5910 5911 5910 5910 5910 5910 5911 5910 5911
5887 5886 5886 5886 5886 5885 5885 5885 5884 5884 5883 5883 5882 5882 5882 5881 5881 5881 5880 5880 5879 5879 5879 5879 5879 5879 5879 5878 5878 5878 5879 5879 5879 5878 5878 5878 5878 5879 5880 5880 5881 5882 5883 5883 5884 5885 5887 5888 5890 5890 5891 5893 5895 5896 5898 5898 5899 5902 5908 5909 5908 5909 5909 5910 5911 5910 5910 5909 5908 5909 5910 5910 5910 5910 5909 5907 5907 5908 5910 5910 5910 5910 5910 5910 5910 5910 5911 5911
5885 5885 5884 5884 5884 5884 5883 5883 5883 5882 5882 5881 5881 5881 5880 5880 5880 5879 5879 5878 5878 5878 5878 5878 5877 5878 5877 5877 5877 5877 5877 5878 5878 5878 5877 5877 5877 5877 5878 5878 5879 5881 5882 5882 5883 5884 5885 5887 5888 5888 5889 5892 5893 5896 5899 5899 5899 5900 5904 5907 5907 5907 5908 5908 5909 5911 5911 5909 5907 5908 5909 5910 5910 5909 5908 5908 5907 5908 5910 5909 5909 5910 5910 5910 5909 5910 5910 5911
5882 5882 5882 5882 5882 5881 5881 5881 5881 5881 5880 5880 5879 5879 5878 5878 5878 5877 5877 5877 5877 5876 5876 5876 5876 5876 5876 5876 5876 5875 5875 5876 5876 5877 5876 5876 5876 5876 5876 5877 5878 5879 5880 5881 5882 5883 5884 5884 5885 5886 5888 5890 5891 5895 5897 5897 5898 5899 5902 5905 5906 5907 5907 5907 5909 5910 5910 5908 5907 5907 5909 5910 5910 5909 5908 5909 5907 5907 5910 5909 5909 5910 5910 5910 5910 5910 5910 5911
5880 5880 5879 5879 5879 5879 5879 5879 5879 5879 5878 5878 5877 5877 5877 5877 5876 5876 5875 5875 5875 5875 5874 5875 5875 5875 5875 5874 5875 5874 5874 5874 5875 5875 5875 5875 5875 5875 5875 5875 5876 5877 5878 5879 5880 5881 5882 5883 5884 5885 5886 5888 5890 5893 5893 5893 5894 5897 5900 5903 5904 5905 5906 5907 5909 5910 5910 5908 5907 5908 5909 5910 5910 5909 5908 5909 5908 5907 5909 5910 5909 5909 5910 5910 5910 5910 5910 5911
5877 5877 5877 5876 5876 5876 5876 5876 5876 5876 5876 5875 5875 5875 5875 5875 5874 5874 5874 5873 5873 5873 5873 5873 5873 5874 5874 5873 5873 5874 5873 5873 5873 5874 5874 5874 5874 5873 5874 5874 5874 5875 5876 5877 5878 5879 5880 5881 5882 5883 5885 5887 5889 5890 5890 5890 5892 5894 5896 5899 5901 5903 5906 5907 5908 5910 5910 5908 5907 5907 5908 5909 5910 5909 5908 5909 5908 5906 5908 5910 5909 5909 5909 5910 5910 5910 5911 5912
5874 5874 5874 5874 5873 5873 5874 5874 5873 5873 5873 5873 5873 5872 5872 5872 5872 5872 5872 5871 5871 5871 5871 5871 5871 5872 5872 5871 5871 5872 5872 5872 5872 5872 5872 5873 5873 5872 5873 5872 5873 5874 5875 5876 5877 5878 5879 5879 5880 5882 5884 5885 5887 5889 5889 5889 5892 5893 5894 5898 5901 5903 5906 5907 5907 5909 5910 5908 5906 5906 5907 5908 5908 5908 5907 5907 5908 5906 5907 5909 5909 5909 5909 5910 5910 5911 5911 5912
5872 5871 5871 5871 5871 5871 5871 5871 5870 5870 5870 5870 5870 5870 5870 5870 5870 5870 5870 5870 5869 5869 5868 5869 5870 5870 5870 5870 5870 5870 5870 5870 5870 5870 5871 5871 5872 5871 5871 5871 5871 5872 5873 5874 5874 5876 5876 5877 5879 5880 5882 5883 5885 5887 5887 5887 5890 5893 5895 5897 5900 5902 5904 5907 5907 5909 5909 5907 5906 5905 5906 5907 5907 5907 5906 5906 5907 5906 5905 5908 5909 5909 5910 5910 5910 5911 5912 5913
5870 5869 5868 5868 5868 5868 5868 5868 5867 5867 5867 5867 5867 5867 5866 5868 5868 5867 5867 5868 5867 5866 5866 5866 5868 5868 5867 5869 5869 5867 5868 5869 5868 5868 5869 5870 5870 5870 5870 5870 5870 5870 5871 5872 5872 5874 5874 5875 5877 5878 5880 5881 5883 5884 5884 5886 5891 5893 5895 5897 5899 5900 5901 5905 5907 5908 5908 5907 5906 5905 5905 5906 5906 5907 5906 5905 5906 5906 5905 5906 5908 5909 5910 5910 5911 5912 5912 5913
5867 5866 5866 5866 5865 5865 5865 5865 5865 5865 5864 5864 5864 5864 5863 5865 5865 5864 5865 5865 5864 5864 5863 5864 5866 5866 5865 5866 5867 5865 5866 5867 5866 5866 5867 5868 5868 5869 5869 5869 5869 5869 5869 5870 5871 5871 5873 5873 5874 5876 5878 5880 5881 5882 5884 5888 5892 5893 5895 5897 5898 5900 5901 5904 5906 5906 5907 5907 5906 5905 5904 5904 5905 5906 5906 5905 5905 5906 5905 5906 5907 5908 5909 5910 5911 5911 5912 5913
5865 5864 5863 5863 5862 5862 5863 5862 5862 5862 5861 5860 5861 5861 5860 5861 5861 5861 5863 5863 5861 5861 5861 5861 5863 5863 5862 5863 5864 5864 5863 5864 5864 5864 5865 5866 5866 5867 5867 5867 5867 5867 5868 5868 5869 5870 5871 5871 5872 5876 5878 5879 5881 5883 5885 5888 5891 5892 5894 5895 5897 5900 5902 5905 5907 5905 5906 5908 5905 5904 5904 5903 5902 5904 5905 5904 5904 5905 5906 5906 5906 5907 5908 5909 5910 5911 5912 5912
5862 5861 5860 5859 5859 5859 5860 5859 5859 5859 5859 5858 5858 5857 5858 5859 5858 5857 5859 5860 5859 5858 5859 5859 5859 5861 5860 5858 5861 5861 5860 5861 5862 5861 5862 5863 5864 5864 5865 5865 5866 5866 5866 5867 5867 5868 5868 5868 5872 5875 5876 5878 5880 5881 5883 5886 5888 5890 5892 5893 5893 5896 5900 5904 5907 5905 5904 5907 5904 5902 5903 5902 5901 5902 5903 5903 5903 5904 5905 5905 5906 5907 5907 5908 5909 5910 5911 5911
5858 5858 5857 5856 5855 5855 5856 5856 5856 5855 5855 5855 5855 5854 5855 5855 5855 5854 5855 5857 5857 5855 5856 5857 5856 5859 5858 5855 5857 5858 5857 5859 5859 5859 5859 5861 5862 5862 5863 5863 5864 5864 5864 5864 5865 5865 5866 5867 5870 5872 5874 5875 5877 5879 5880 5883 5885 5887 5890 5891 5891 5892 5896 5902 5906 5905 5902 5904 5904 5901 5901 5901 5900 5900 5902 5902 5902 5902 5904 5904 5905 5906 5906 5907 5908 5909 5910 5911
5854 5854 5853 5853 5851 5851 5852 5852 5852 5851 5852 5852 5852 5851 5851 5851 5850 5851 5851 5854 5855 5852 5853 5854 5853 5856 5857 5855 5853 5853 5855 5856 5856 5857 5857 5857 5859 5859 5860 5861 5862 5862 5862 5863 5863 5864 5865 5867 5868 5869 5871 5873 5874 5876 5877 5880 5882 5884 5886 5889 5890 5892 5893 5897 5903 5905 5901 5900 5902 5901 5900 5899 5899 5898 5900 5901 5901 5901 5902 5902 5904 5904 5905 5906 5907 5907 5909 5910
5850 5850 5849 5849 5848 5846 5847 5847 5847 5847 5847 5848 5848 5848 5847 5847 5846 5847 5847 5849 5852 5851 5848 5849 5851 5854 5854 5851 5848 5850 5853 5854 5853 5854 5854 5854 5856 5856 5857 5859 5859 5860 5861 5862 5862 5862 5864 5865 5865 5866 5868 5870 5872 5873 5874 5876 5878 5881 5883 5886 5889 5891 5891 5893 5899 5903 5902 5898 5898 5899 5899 5897 5897 5898 5898 5900 5901 5900 5900 5901 5902 5904 5904 5905 5906 5906 5908 5909
5844 5844 5845 5844 5843 5842 5841 5842 5842 5842 5843 5843 5844 5844 5842 5842 5843 5843 5843 5843 5848 5849 5844 5844 5848 5851 5849 5846 5847 5848 5849 5850 5851 5851 5850 5851 5853 5854 5855 5855 5856 5858 5859 5859 5859 5860 5862 5863 5863 5863 5865 5867 5868 5869 5871 5874 5876 5878 5881 5884 5888 5889 5889 5892 5896 5899 5899 5896 5894 5896 5897 5894 5895 5897 5897 5899 5900 5900 5900 5900 5901 5902 5903 5904 5905 5906 5906 5908
5837 5838 5839 5839 5839 5838 5836 5836 5837 5837 5838 5839 5839 5838 5838 5838 5838 5839 5839 5838 5843 5846 5842 5841 5843 5845 5845 5844 5845 5845 5844 5847 5849 5846 5846 5848 5850 5851 5850 5851 5854 5856 5856 5857 5856 5858 5860 5861 5860 5861 5862 5863 5864 5866 5869 5871 5873 5875 5879 5883 5887 5888 5889 5890 5893 5896 5897 5895 5893 5893 5895 5894 5893 5894 5896 5897 5898 5899 5899 5898 5899 5900 5902 5902 5903 5905 5906 5906
5831 5831 5833 5833 5833 5834 5831 5830 5831 5832 5832 5834 5834 5833 5833 5834 5834 5834 5834 5833 5837 5840 5839 5840 5839 5839 5841 5841 5841 5841 5842 5844 5844 5843 5844 5845 5847 5847 5846 5847 5851 5853 5853 5852 5853 5856 5858 5858 5858 5859 5860 5861 5861 5863 5866 5869 5869 5872 5878 5881 5883 5887 5889 5888 5888 5891 5894 5895 5893 5890 5893 5893 5891 5891 5892 5894 5895 5896 5896 5897 5898 5899 5900 5901 5902 5903 5905 5905
5824 5824 5825 5827 5826 5828 5828 5825 5824 5826 5827 5828 5828 5828 5828 5829 5829 5830 5829 5828 5831 5834 5836 5837 5836 5835 5836 5836 5837 5839 5839 5839 5841 5842 5842 5841 5842 5843 5843 5845 5848 5849 5849 5847 5849 5854 5856 5856 5856 5857 5858 5858 5859 5861 5863 5866 5866 5870 5877 5878 5880 5884 5887 5887 5885 5886 5890 5892 5890 5887 5889 5889 5888 5889 5890 5889 5891 5893 5894 5895 5897 5897 5898 5899 5901 5902 5903 5904
5818 5817 5818 5820 5819 5820 5822 5821 5818 5818 5820 5822 5822 5822 5823 5823 5824 5825 5823 5822 5827 5830 5830 5830 5832 5832 5832 5832 5834 5836 5835 5835 5838 5839 5838 5837 5839 5840 5841 5843 5844 5845 5844 5843 5846 5851 5852 5854 5855 5854 5855 5856 5858 5859 5861 5862 5863 5869 5874 5875 5877 5880 5883 5885 5884 5884 5886 5886 5885 5885 5886 5884 5884 5886 5886 5886 5888 5890 5892 5894 5895 5895 5896 5897 5899 5900 5901 5903
5812 5811 5811 5812 5813 5813 5814 5814 5813 5812 5812 5814 5815 5816 5817 5817 5819 5819 5816 5817 5824 5825 5823 5824 5827 5828 5827 5828 5830 5832 5832 5831 5833 5832 5833 5835 5835 5836 5838 5839 5839 5840 5840 5840 5842 5846 5849 5851 5850 5851 5853 5854 5856 5857 5858 5859 5861 5866 5870 5872 5874 5875 5878 5881 5882 5884 5882 5878 5879 5883 5884 5883 5881 5881 5882 5883 5886 5888 5890 5892 5892 5892 5894 5895 5897 5899 5900 5901
5805 5804 5803 5804 5805 5806 5805 5805 5807 5808 5806 5805 5807 5809 5810 5811 5812 5810 5809 5815 5820 5818 5817 5819 5821 5820 5821 5823 5825 5827 5828 5828 5827 5825 5827 5831 5831 5832 5834 5835 5835 5836 5837 5837 5840 5844 5846 5845 5846 5848 5850 5852 5853 5854 5855 5856 5858 5862 5865 5868 5870 5871 5874 5876 5877 5879 5876 5872 5875 5880 5882 5881 5877 5876 5879 5881 5884 5886 5887 5889 5890 5891 5892 5893 5895 5897 5898 5898
5797 5796 5796 5795 5797 5798 5798 5796 5798 5800 5799 5798 5799 5801 5802 5803 5803 5802 5806 5812 5813 5810 5811 5813 5814 5813 5814 5816 5818 5820 5822 5823 5823 5820 5822 5826 5827 5828 5830 5831 5832 5832 5833 5835 5839 5841 5841 5842 5844 5845 5846 5848 5849 5851 5852 5853 5854 5857 5860 5863 5865 5867 5869 5870 5870 5871 5868 5869 5874 5879 5880 5878 5875 5875 5877 5879 5882 5884 5885 5886 5887 5889 5891 5892 5892 5895 5896 5896
5788 5788 5787 5786 5787 5789 5789 5789 5789 5790 5791 5792 5791 5792 5794 5794 5793 5798 5804 5806 5804 5804 5805 5806 5807 5805 5806 5809 5812 5814 5815 5818 5819 5817 5817 5820 5821 5823 5826 5827 5827 5828 5830 5832 5834 5835 5836 5838 5839 5839 5842 5845 5846 5848 5849 5850 5851 5853 5855 5857 5859 5861 5862 5862 5863 5864 5864 5867 5872 5877 5877 5874 5873 5875 5875 5877 5880 5882 5883 5883 5885 5886 5888 5890 5891 5893 5893 5893
5779 5779 5778 5777 5778 5778 5780 5780 5780 5781 5782 5783 5784 5784 5785 5784 5787 5794 5798 5797 5798 5800 5799 5799 5800 5798 5797 5800 5804 5807 5810 5812 5814 5813 5812 5813 5815 5817 5820 5823 5823 5823 5826 5828 5827 5829 5831 5833 5834 5836 5839 5842 5843 5845 5846 5848 5849 5849 5851 5854 5854 5855 5856 5856 5858 5860 5862 5865 5869 5872 5870 5869 5871 5873 5874 5876 5878 5880 5880 5880 5881 5882 5884 5887 5888 5889 5890 5890
5769 5769 5768 5768 5768 5768 5770 5770 5771 5772 5772 5773 5775 5775 5776 5778 5782 5786 5788 5788 5791 5792 5791 5791 5792 5792 5791 5792 5794 5798 5802 5805 5807 5808 5807 5807 5809 5811 5814 5818 5820 5820 5821 5823 5824 5826 5827 5829 5832 5835 5836 5838 5840 5842 5844 5845 5845 5846 5848 5849 5848 5850 5852 5854 5855 5858 5861 5863 5864 5865 5865 5866 5869 5871 5873 5875 5876 5877 5877 5877 5877 5878 5879 5882 5884 5886 5887 5888
5760 5759 5757 5757 5757 5758 5759 5760 5760 5761 5762 5762 5763 5765 5769 5773 5775 5776 5778 5779 5780 5780 5781 5783 5786 5786 5786 5787 5787 5789 5793 5796 5799 5800 5800 5802 5804 5806 5809 5812 5815 5816 5816 5818 5821 5822 5823 5825 5830 5832 5833 5834 5835 5838 5841 5840 5841 5843 5843 5842 5846 5850 5852 5853 5854 5857 5860 5859 5858 5861 5863 5865 5867 5868 5870 5873 5873 5874 5875 5875 5875 5875 5875 5876 5879 5883 5884 5885
5749 5749 5746 5744 5746 5747 5748 5749 5749 5749 5751 5751 5753 5757 5761 5763 5765 5766 5767 5769 5770 5770 5771 5775 5779 5779 5779 5782 5783 5783 5785 5787 5790 5792 5794 5795 5797 5800 5803 5806 5809 5811 5812 5814 5817 5819 5820 5821 5825 5828 5829 5830 5832 5834 5837 5837 5838 5839 5839 5841 5847 5850 5849 5851 5852 5854 5855 5853 5852 5857 5859 5861 5863 5864 5867 5870 5870 5870 5872 5872 5872 5872 5872 5873 5875 5879 5881 5883
5736 5737 5732 5729 5733 5735 5736 5737 5737 5738 5738 5739 5743 5748 5751 5752 5755 5756 5757 5758 5760 5760 5761 5765 5770 5772 5773 5775 5778 5780 5780 5779 5781 5784 5786 5787 5790 5795 5798 5800 5803 5806 5809 5810 5811 5814 5816 5816 5819 5821 5823 5826 5829 5829 5829 5831 5833 5835 5837 5840 5843 5843 5843 5845 5846 5848 5849 5847 5848 5852 5855 5856 5858 5860 5864 5868 5868 5868 5869 5870 5870 5870 5870 5871 5872 5876 5879 5881
5722 5723 5717 5714 5720 5722 5721 5723 5725 5726 5725 5728 5734 5737 5739 5741 5743 5745 5747 5748 5750 5750 5751 5755 5758 5761 5765 5767 5769 5773 5774 5774 5775 5776 5778 5780 5783 5789 5792 5794 5797 5800 5803 5805 5806 5810 5812 5812 5814 5816 5818 5821 5822 5821 5822 5824 5828 5832 5834 5836 5837 5837 5838 5840 5841 5843 5844 5843 5844 5848 5850 5850 5852 5857 5862 5865 5866 5866 5867 5867 5868 5869 5869 5868 5870 5874 5877 5879
5706 5708 5703 5700 5704 5706 5706 5708 5709 5711 5712 5717 5722 5723 5726 5729 5730 5732 5735 5736 5738 5738 5739 5743 5745 5749 5754 5757 5759 5761 5763 5768 5771 5770 5772 5773 5776 5781 5785 5787 5790 5793 5796 5799 5802 5805 5806 5805 5809 5813 5814 5814 5813 5814 5817 5820 5824 5828 5829 5830 5831 5832 5833 5836 5837 5837 5839 5839 5840 5842 5843 5844 5849 5854 5858 5861 5864 5865 5865 5865 5866 5867 5867 5867 5868 5872 5875 5877
5690 5692 5688 5684 5687 5689 5691 5692 5693 5694 5698 5703 5707 5708 5711 5714 5716 5720 5722 5722 5726 5728 5728 5730 5733 5737 5741 5745 5749 5752 5752 5756 5762 5765 5767 5768 5771 5774 5777 5780 5783 5787 5789 5790 5793 5798 5800 5800 5803 5807 5808 5807 5807 5810 5813 5815 5820 5824 5826 5827 5829 5829 5830 5831 5830 5830 5833 5834 5836 5838 5838 5841 5847 5852 5854 5858 5862 5862 5863 5864 5864 5865 5866 5866 5866 5868 5871 5873
5673 5676 5674 5667 5668 5673 5674 5674 5677 5678 5680 5687 5692 5693 5696 5699 5702 5706 5708 5708 5712 5715 5715 5718 5722 5726 5729 5733 5738 5742 5744 5746 5750 5755 5759 5764 5767 5769 5773 5776 5778 5780 5781 5783 5785 5790 5796 5797 5797 5798 5802 5804 5806 5807 5808 5809 5813 5819 5821 5823 5826 5825 5825 5825 5825 5828 5831 5832 5834 5837 5836 5837 5844 5849 5852 5856 5859 5860 5862 5862 5862 5863 5863 5863 5863 5864 5865 5867
5655 5660 5659 5650 5649 5655 5656 5657 5661 5661 5663 5671 5674 5675 5680 5684 5686 5689 5692 5694 5697 5700 5701 5705 5711 5714 5718 5723 5726 5730 5734 5737 5740 5744 5747 5753 5759 5764 5770 5774 5774 5775 5775 5777 5780 5781 5785 5788 5790 5792 5796 5800 5804 5805 5804 5803 5805 5809 5812 5816 5820 5820 5820 5822 5825 5828 5831 5830 5832 5833 5832 5833 5840 5846 5851 5854 5856 5857 5859 5859 5860 5861 5860 5860 5861 5861 5861 5863
5637 5642 5644 5636 5633 5638 5639 5642 5645 5644 5646 5652 5654 5657 5664 5668 5671 5674 5676 5678 5681 5684 5687 5691 5696 5699 5703 5708 5711 5716 5723 5726 5729 5734 5736 5740 5746 5755 5763 5768 5771 5772 5770 5771 5774 5776 5775 5778 5783 5786 5788 5792 5795 5797 5796 5796 5797 5799 5803 5809 5814 5816 5818 5820 5822 5824 5825 5825 5827 5828 5827 5830 5835 5841 5846 5850 5852 5854 5855 5855 5856 5857 5857 5857 5859 5859 5858 5860
5620 5624 5627 5622 5619 5622 5624 5626 5629 5628 5631 5635 5636 5642 5647 5650 5654 5656 5656 5660 5663 5665 5667 5673 5680 5682 5682 5687 5692 5702 5711 5713 5716 5723 5727 5731 5739 5745 5750 5755 5761 5767 5768 5768 5770 5771 5769 5769 5772 5776 5778 5780 5783 5786 5788 5790 5791 5793 5797 5802 5807 5812 5814 5816 5819 5819 5818 5819 5823 5823 5822 5827 5832 5834 5839 5845 5848 5851 5852 5852 5853 5854 5853 5855 5857 5857 5856 5857
5602 5607 5610 5608 5607 5609 5611 5612 5614 5613 5615 5617 5618 5624 5628 5631 5637 5640 5641 5645 5648 5649 5651 5659 5666 5664 5664 5672 5679 5687 5696 5697 5700 5709 5715 5720 5727 5732 5734 5737 5743 5751 5758 5763 5765 5765 5765 5763 5763 5765 5769 5774 5780 5785 5788 5790 5789 5789 5792 5797 5801 5806 5810 5813 5813 5812 5813 5815 5818 5819 5821 5826 5830 5831 5833 5838 5844 5847 5848 5850 5851 5851 5851 5852 5853 5854 5853 5854
5586 5591 5594 5594 5596 5599 5600 5601 5601 5600 5601 5602 5605 5611 5616 5619 5625 5631 5634 5634 5635 5638 5643 5648 5651 5650 5654 5663 5669 5673 5679 5682 5687 5696 5699 5703 5711 5720 5725 5728 5732 5735 5740 5748 5755 5758 5758 5757 5756 5758 5762 5769 5776 5782 5786 5788 5787 5787 5789 5792 5795 5799 5804 5807 5806 5807 5811 5813 5812 5816 5820 5823 5827 5830 5832 5835 5840 5843 5845 5847 5849 5850 5848 5848 5849 5850 5851 5852
5574 5578 5580 5580 5584 5589 5591 5592 5592 5592 5593 5594 5595 5600 5606 5610 5614 5619 5623 5623 5623 5628 5632 5635 5637 5640 5646 5653 5657 5660 5666 5672 5678 5684 5688 5695 5705 5713 5718 5722 5725 5726 5728 5735 5744 5750 5752 5752 5753 5755 5757 5762 5769 5774 5778 5782 5785 5786 5787 5788 5789 5792 5796 5800 5802 5804 5808 5808 5808 5814 5819 5820 5823 5827 5831 5834 5837 5839 5842 5845 5847 5847 5845 5844 5845 5847 5849 5850
5565 5569 5571 5571 5573 5579 5582 5583 5584 5584 5585 5587 5587 5590 5595 5599 5602 5606 5610 5611 5613 5617 5619 5620 5625 5629 5633 5639 5645 5650 5657 5663 5667 5672 5679 5689 5698 5705 5712 5718 5720 5720 5721 5724 5732 5741 5746 5747 5749 5751 5753 5755 5760 5765 5770 5774 5780 5783 5784 5784 5785 5787 5789 5793 5798 5801 5803 5804 5807 5812 5815 5816 5818 5822 5826 5831 5833 5835 5838 5840 5841 5843 5843 5842 5842 5843 5845 5846
5560 5562 5565 5565 5566 5571 5573 5575 5576 5577 5578 5581 5581 5583 5586 5589 5591 5595 5598 5599 5601 5605 5606 5606 5610 5616 5619 5625 5632 5638 5646 5651 5655 5661 5669 5678 5689 5697 5705 5713 5714 5714 5715 5716 5720 5729 5736 5740 5743 5746 5748 5748 5751 5758 5762 5767 5772 5777 5779 5780 5781 5783 5784 5787 5792 5796 5798 5799 5802 5807 5808 5810 5814 5817 5821 5826 5829 5831 5833 5835 5836 5837 5839 5840 5839 5839 5840 5842
5557 5558 5559 5559 5561 5565 5566 5567 5569 5570 5573 5575 5574 5575 5578 5579 5581 5584 5586 5587 5588 5593 5596 5594 5596 5604 5608 5613 5618 5625 5633 5639 5644 5651 5658 5668 5678 5686 5695 5703 5704 5705 5708 5710 5711 5716 5723 5731 5736 5739 5740 5742 5746 5752 5755 5761 5766 5769 5771 5774 5776 5779 5782 5784 5787 5790 5792 5794 5797 5800 5801 5804 5809 5814 5817 5821 5824 5826 5828 5830 5832 5832 5832 5835 5836 5835 5836 5839
5554 5555 5555 5555 5558 5560 5559 5560 5562 5564 5567 5569 5568 5570 5571 5573 5575 5576 5577 5579 5580 5583 5587 5586 5589 5597 5602 5605 5610 5615 5623 5628 5633 5640 5648 5657 5667 5675 5685 5693 5694 5695 5699 5701 5703 5706 5711 5718 5726 5730 5732 5736 5742 5748 5751 5756 5759 5756 5757 5765 5771 5776 5780 5783 5784 5785 5787 5790 5793 5795 5796 5800 5805 5809 5812 5815 5818 5821 5823 5825 5827 5827 5827 5829 5832 5833 5834 5835